Clarksville, TX

8:59 AM CDT on June 23, 2017 (GMT -0500)
Clarksville

Weather History for KLBR - December, 2013

Change the Weather History Date:

Sunday, December 1, 2013

  Actual Average (KPRX) Record (KPRX)
Temperature  
Mean Temperature 58 °F -  
Max Temperature 67 °F 57 °F 78 °F (2012)
Min Temperature 49 °F 39 °F 23 °F (2006)
Degree Days  
Heating Degree Days 7    
Growing Degree Days 8 (Base 50)    
Moisture  
Dew Point 51 °F    
Average Humidity 78    
Maximum Humidity 93    
Minimum Humidity 63    
Precipitation  
Precipitation 0.00 in - - ()
Sea Level Pressure  
Sea Level Pressure 30.05 in    
Wind  
Wind Speed 3 mph (South)    
Max Wind Speed 9 mph    
Max Gust Speed -    
Visibility 10 miles    
Events      
Averages and records for this station are not official NWS values.
T = Trace of Precipitation, MM = Missing Value Source: NWS Daily Summary

Daily Weather History Graph

Daily Weather History Graph

Search for Another Location

Airport or City:

Trip Planner

Search our weather history database for the weather conditions in past years. The results will help you decide how hot, cold, wet, or windy it might be!

Date:

Astronomy

Dec. 01, 2013 Rise Set
Actual Time 7:06 AM CST 5:11 PM CST
Civil Twilight 6:39 AM CST 5:39 PM CST
Nautical Twilight 6:08 AM CST 6:09 PM CST
Astronomical Twilight 5:38 AM CST 6:40 PM CST
Moon 5:29 AM CST (12/1) 4:19 PM CST (12/1)
Length of Visible Light 10h 59m
Length of Day
10h 05m
Waning Crescent, 2% of the Moon is Illuminated
Dec 1
Waning Crescent
Dec 2
New
Dec 9
First Quarter
Dec 17
Full
Dec 25
Last Quarter

Hourly Weather History & Observations

Time (CST) Temp. Dew Point Humidity Pressure Visibility Wind Dir Wind Speed Gust Speed Precip Events Conditions
12:15 AM 52.2 °F 45.5 °F 78% 30.19 in 10.0 mi Calm Calm - N/A   Scattered Clouds
12:35 AM 52.2 °F 45.5 °F 78% 30.17 in 10.0 mi SE 3.5 mph - N/A   Scattered Clouds
12:55 AM 52.2 °F 45.5 °F 78% 30.17 in 10.0 mi SSE 3.5 mph - N/A   Clear
1:15 AM 51.3 °F 45.1 °F 80% 30.17 in 10.0 mi Calm Calm - N/A   Clear
1:35 AM 50.5 °F 44.8 °F 81% 30.17 in 10.0 mi SE 3.5 mph - N/A   Clear
1:55 AM 50.4 °F 44.6 °F 81% 30.16 in 10.0 mi SE 3.5 mph - N/A   Clear
2:15 AM 50.5 °F 45.1 °F 82% 30.16 in 10.0 mi SSE 3.5 mph - N/A   Clear
2:35 AM 51.8 °F 45.7 °F 80% 30.16 in 10.0 mi SE 3.5 mph - N/A   Clear
2:55 AM 51.1 °F 45.5 °F 81% 30.15 in 10.0 mi SE 3.5 mph - N/A   Clear
3:15 AM 50.9 °F 45.5 °F 82% 30.15 in 10.0 mi SSE 3.5 mph - N/A   Clear
3:35 AM 50.5 °F 45.5 °F 83% 30.15 in 7.0 mi SE 3.5 mph - N/A   Clear
3:55 AM 50.4 °F 45.5 °F 83% 30.15 in 10.0 mi Calm Calm - N/A   Clear
4:15 AM 50.0 °F 45.5 °F 85% 30.14 in 7.0 mi SE 3.5 mph - N/A   Clear
4:35 AM 50.0 °F 45.7 °F 85% 30.14 in 10.0 mi Calm Calm - N/A   Clear
4:55 AM 50.2 °F 46.4 °F 87% 30.14 in 10.0 mi Calm Calm - N/A   Clear
5:15 AM 50.0 °F 47.1 °F 90% 30.13 in 10.0 mi SE 3.5 mph - N/A   Clear
5:35 AM 50.0 °F 47.3 °F 90% 30.13 in 10.0 mi Calm Calm - N/A   Clear
5:55 AM 50.0 °F 47.3 °F 90% 30.13 in 7.0 mi SE 3.5 mph - N/A   Clear
6:15 AM 50.0 °F 47.3 °F 90% 30.13 in 10.0 mi SE 3.5 mph - N/A   Clear
6:35 AM 50.0 °F 47.7 °F 92% 30.13 in 10.0 mi Calm Calm - N/A   Clear
6:55 AM 49.8 °F 47.5 °F 92% 30.13 in 10.0 mi Calm Calm - N/A   Clear
7:15 AM 50.0 °F 47.7 °F 92% 30.13 in 10.0 mi Calm Calm - N/A   Clear
7:35 AM 50.2 °F 48.2 °F 93% 30.12 in 7.0 mi Calm Calm - N/A   Clear
7:55 AM 50.9 °F 48.9 °F 93% 30.13 in 10.0 mi SSE 3.5 mph - N/A   Clear
8:15 AM 52.0 °F 49.6 °F 92% 30.13 in 7.0 mi SSE 4.6 mph - N/A   Clear
8:35 AM 53.6 °F 50.5 °F 89% 30.13 in 10.0 mi SSE 4.6 mph - N/A   Scattered Clouds
8:55 AM 54.1 °F 50.7 °F 88% 30.13 in 10.0 mi Calm Calm - N/A   Clear
9:15 AM 55.6 °F 51.6 °F 87% 30.13 in 10.0 mi SSE 4.6 mph - N/A   Clear
9:35 AM 57.0 °F 50.9 °F 80% 30.13 in 10.0 mi SSE 4.6 mph - N/A   Clear
9:55 AM 59.0 °F 51.8 °F 77% 30.13 in 10.0 mi South 4.6 mph - N/A   Clear
10:15 AM 60.8 °F 52.3 °F 74% 30.13 in 10.0 mi South 4.6 mph - N/A   Clear
10:35 AM 62.1 °F 52.9 °F 72% 30.12 in 7.0 mi South 6.9 mph - N/A   Clear
10:55 AM 63.5 °F 53.1 °F 69% 30.11 in 10.0 mi SSW 9.2 mph - N/A   Clear
11:15 AM 63.7 °F 53.2 °F 69% 30.10 in 7.0 mi South 6.9 mph - N/A   Scattered Clouds
11:35 AM 64.0 °F 53.2 °F 68% 30.10 in 7.0 mi SSW 9.2 mph - N/A   Scattered Clouds
11:55 AM 64.6 °F 53.8 °F 68% 30.08 in 10.0 mi South 8.1 mph - N/A   Mostly Cloudy
12:15 PM 65.7 °F 54.0 °F 66% 30.06 in 10.0 mi SSW 4.6 mph - N/A   Mostly Cloudy
12:35 PM 66.4 °F 54.5 °F 66% 30.05 in 10.0 mi South 5.8 mph - N/A   Mostly Cloudy
12:55 PM 67.3 °F 54.5 °F 63% 30.03 in 10.0 mi SSW 6.9 mph - N/A   Scattered Clouds
1:15 PM 67.3 °F 54.5 °F 63% 30.02 in 10.0 mi SSW 4.6 mph - N/A   Scattered Clouds
1:35 PM 66.2 °F 54.3 °F 65% 30.02 in 10.0 mi SSW 6.9 mph - N/A   Mostly Cloudy
1:55 PM 66.6 °F 54.5 °F 65% 30.00 in 10.0 mi South 4.6 mph - N/A   Mostly Cloudy
2:15 PM 67.1 °F 54.5 °F 64% 30.00 in 10.0 mi SSW 4.6 mph - N/A   Mostly Cloudy
2:35 PM 66.6 °F 54.5 °F 65% 29.99 in 10.0 mi SSW 3.5 mph - N/A   Overcast
2:55 PM 66.6 °F 54.5 °F 65% 29.98 in 10.0 mi South 3.5 mph - N/A   Mostly Cloudy
3:15 PM 66.7 °F 54.5 °F 65% 29.98 in 10.0 mi SSW 3.5 mph - N/A   Mostly Cloudy
3:35 PM 67.1 °F 54.5 °F 64% 29.97 in 10.0 mi South 3.5 mph - N/A   Mostly Cloudy
3:55 PM 66.6 °F 54.5 °F 65% 29.97 in 10.0 mi Calm Calm - N/A   Mostly Cloudy
4:15 PM 66.2 °F 54.5 °F 66% 29.96 in 10.0 mi SSE 3.5 mph - N/A   Mostly Cloudy
4:35 PM 64.8 °F 54.5 °F 69% 29.96 in 10.0 mi Calm Calm - N/A   Scattered Clouds
4:55 PM 64.4 °F 54.7 °F 71% 29.96 in 10.0 mi Calm Calm - N/A   Mostly Cloudy
5:15 PM 63.1 °F 54.9 °F 74% 29.95 in 10.0 mi SE 3.5 mph - N/A   Mostly Cloudy
5:35 PM 62.8 °F 54.7 °F 75% 29.93 in 10.0 mi SSE 4.6 mph - N/A   Mostly Cloudy
5:55 PM 63.9 °F 54.7 °F 72% 29.94 in 10.0 mi South 3.5 mph - N/A   Mostly Cloudy
6:15 PM 64.4 °F 54.9 °F 71% 29.95 in 10.0 mi Calm Calm - N/A   Overcast
6:35 PM 64.4 °F 54.9 °F 71% 29.95 in 10.0 mi Calm Calm - N/A   Overcast
6:55 PM 64.0 °F 54.9 °F 72% 29.95 in 10.0 mi Calm Calm - N/A   Overcast
7:15 PM 63.9 °F 55.0 °F 73% 29.95 in 10.0 mi South 3.5 mph - N/A   Overcast
7:35 PM 63.9 °F 54.9 °F 72% 29.93 in 10.0 mi South 3.5 mph - N/A   Overcast
7:55 PM 63.5 °F 54.9 °F 73% 29.94 in 10.0 mi Calm Calm - N/A   Overcast
8:15 PM 62.4 °F 54.7 °F 76% 29.93 in 10.0 mi SSE 3.5 mph - N/A   Mostly Cloudy
8:35 PM 62.6 °F 54.9 °F 76% 29.92 in 10.0 mi South 4.6 mph - N/A   Mostly Cloudy
8:55 PM 61.9 °F 54.7 °F 77% 29.92 in 10.0 mi South 4.6 mph - N/A   Mostly Cloudy
9:15 PM 61.7 °F 54.9 °F 78% 29.92 in 10.0 mi South 3.5 mph - N/A   Mostly Cloudy
9:35 PM 61.7 °F 54.9 °F 78% 29.92 in 10.0 mi Calm Calm - N/A   Mostly Cloudy
9:55 PM 60.8 °F 54.5 °F 80% 29.93 in 10.0 mi Calm Calm - N/A   Mostly Cloudy
10:15 PM 59.9 °F 54.5 °F 82% 29.91 in 10.0 mi Calm Calm - N/A   Mostly Cloudy
10:35 PM 60.1 °F 54.3 °F 81% 29.91 in 10.0 mi Calm Calm - N/A   Mostly Cloudy
10:55 PM 59.4 °F 55.6 °F 87% 29.91 in 10.0 mi Calm Calm - N/A   Mostly Cloudy
11:15 PM 58.5 °F 55.8 °F 91% 29.90 in 10.0 mi Calm Calm - N/A   Mostly Cloudy
11:35 PM 57.6 °F 55.0 °F 91% 29.90 in 7.0 mi Calm Calm - N/A   Mostly Cloudy
11:55 PM 57.2 °F 55.2 °F 93% 29.89 in 7.0 mi Calm Calm - N/A   Scattered Clouds